period_start,C,m1,H,J0,J1,J2,J3,J4,J5,JA,JB,JC,JD,JJ,JK,JN,#
2016-11-16 00:04:42,0.07,3.20,0.00,22.50,27.75,31.26,14.72,45.90,1027.35,2027.00,2477.64,2321.20,2626.42,599.64,603.00,28.62,0000 0000 0000 0000 000000
2016-11-16 00:09:43,0.07,3.20,0.00,22.52,27.75,31.23,14.81,46.01,1027.23,2027.00,2476.68,2320.61,2625.62,600.06,603.21,28.67,0000 0000 0000 0000 000000
2016-11-16 00:14:44,0.05,3.21,0.00,22.54,27.75,31.18,14.71,46.00,1027.23,2027.00,2475.76,2319.87,2624.80,600.17,603.38,28.72,0000 0000 0000 0000 000000
2016-11-16 00:19:45,0.08,3.21,0.00,22.50,27.75,31.30,14.71,45.87,1027.22,2027.00,2474.65,2319.04,2623.85,600.00,603.33,28.77,0000 0000 0000 0000 000000
2016-11-16 00:24:46,0.08,3.22,0.00,22.46,27.75,31.25,14.78,46.02,1027.06,2027.00,2473.55,2318.20,2623.04,600.14,603.36,28.82,0000 0000 0000 0000 000000
2016-11-16 00:29:47,0.07,3.22,0.00,22.49,27.75,31.24,14.80,45.81,1027.10,2027.00,2472.56,2317.57,2622.34,600.24,603.47,28.87,0000 0000 0000 0000 000000
2016-11-16 00:34:48,0.05,3.22,0.00,22.49,27.75,31.25,14.71,45.90,1026.95,2027.00,2471.69,2316.94,2621.70,599.78,603.00,28.92,0000 0000 0000 0000 000000
2016-11-16 00:39:50,0.06,3.23,0.00,22.48,27.75,31.24,14.66,45.88,1026.88,2027.00,2470.79,2316.16,2620.99,599.87,602.91,28.97,0000 0000 0000 0000 000000
2016-11-16 00:44:51,0.05,3.23,0.00,22.46,27.75,31.23,14.65,45.79,1026.91,2027.00,2469.96,2315.76,2620.18,599.84,603.09,29.02,0000 0000 0000 0000 000000
2016-11-16 00:49:53,0.06,3.23,0.00,22.50,27.75,31.18,14.71,45.92,1026.94,2027.02,2469.12,2315.04,2619.75,599.86,602.83,29.07,0000 0000 0000 0000 000000
2016-11-16 00:54:54,0.06,3.24,0.00,22.49,27.75,31.21,14.71,45.95,1026.91,2027.02,2468.38,2314.60,2619.01,599.91,602.95,29.12,0000 0000 0000 0000 000000
2016-11-16 00:59:55,0.05,3.24,0.00,22.48,27.75,31.24,14.82,45.88,1026.89,2027.01,2467.55,2314.00,2618.19,600.46,603.62,29.17,0000 0000 0000 0000 000000
2016-11-16 01:04:57,0.06,3.24,0.00,22.45,27.75,31.22,14.67,45.93,1026.90,2027.01,2466.79,2313.30,2617.65,599.63,602.72,29.22,0000 0000 0000 0000 000000
2016-11-16 01:09:58,0.05,3.24,0.00,22.56,27.75,31.13,14.69,45.89,1026.88,2027.01,2465.91,2312.78,2616.95,600.20,603.15,29.27,0000 0000 0000 0000 000000
2016-11-16 01:15:00,0.06,3.25,0.00,22.51,27.75,31.18,14.76,45.90,1026.88,2027.00,2465.03,2312.03,2616.12,600.17,603.18,29.32,0000 0000 0000 0000 000000
2016-11-16 01:20:01,0.08,3.25,0.00,22.51,27.75,31.17,14.70,45.78,1026.87,2027.01,2464.10,2311.35,2615.38,600.04,603.01,29.37,0000 0000 0000 0000 000000
2016-11-16 01:25:03,0.04,3.25,0.00,22.52,27.75,31.11,14.71,45.85,1026.87,2027.02,2463.24,2310.88,2614.79,599.82,602.88,29.42,0000 0000 0000 0000 000000
2016-11-16 01:30:04,0.07,3.26,0.00,22.53,27.75,31.15,14.73,45.90,1026.86,2027.04,2462.32,2310.09,2614.04,599.89,602.89,29.47,0000 0000 0000 0000 000000
2016-11-16 01:35:05,0.04,3.26,0.00,22.48,27.75,31.21,14.71,45.77,1026.87,2027.03,2461.79,2309.83,2613.51,599.84,602.93,29.52,0000 0000 0000 0000 000000
2016-11-16 01:40:06,0.05,3.26,0.00,22.47,27.75,31.17,14.70,45.73,1026.87,2027.07,2461.00,2309.06,2612.97,599.76,602.88,29.57,0000 0000 0000 0000 000000
2016-11-16 01:45:08,0.07,3.27,0.00,22.51,27.75,31.16,14.73,45.70,1026.88,2027.10,2460.16,2308.66,2612.19,600.33,603.50,29.62,0000 0000 0000 0000 000000
2016-11-16 01:50:09,0.05,3.27,0.00,22.52,27.75,31.21,14.71,45.70,1026.89,2027.09,2459.34,2308.01,2611.65,600.00,603.12,29.67,0000 0000 0000 0000 000000
2016-11-16 01:55:10,0.06,3.27,0.00,22.49,27.75,31.21,14.68,45.77,1026.88,2027.04,2458.67,2307.37,2611.00,600.00,603.00,29.72,0000 0000 0000 0000 000000
2016-11-16 02:00:11,0.04,3.28,0.00,22.50,27.75,31.15,14.71,45.77,1026.87,2027.01,2457.89,2306.93,2610.15,600.04,603.03,29.77,0000 0000 0000 0000 000000
2016-11-16 02:05:13,0.08,3.28,0.00,22.58,27.76,31.14,14.71,45.76,1026.87,2027.02,2457.01,2306.13,2609.49,599.89,602.96,29.82,0000 0000 0000 0000 000000
2016-11-16 02:10:14,0.06,3.28,0.00,22.54,27.77,31.17,14.67,45.82,1026.85,2027.01,2456.12,2305.54,2608.86,599.71,602.70,29.87,0000 0000 0000 0000 000000
2016-11-16 02:15:16,0.05,3.29,0.00,22.49,27.77,31.18,14.72,45.83,1026.87,2027.01,2455.33,2304.98,2608.05,600.03,603.08,29.92,0000 0000 0000 0000 000000
2016-11-16 02:20:17,0.08,3.29,0.00,22.52,27.77,31.14,14.75,45.83,1026.84,2027.01,2454.35,2304.18,2607.25,600.00,602.95,29.97,0000 0000 0000 0000 000000
2016-11-16 02:25:18,0.07,3.29,0.00,22.58,27.77,31.15,14.79,45.83,1026.84,2027.01,2453.46,2303.56,2606.50,600.13,603.06,30.02,0000 0000 0000 0000 000000
2016-11-16 02:30:19,0.04,3.30,0.00,22.54,27.77,31.19,14.70,45.73,1026.78,2027.00,2452.51,2302.98,2605.76,599.80,602.77,30.07,0000 0000 0000 0000 000000
2016-11-16 02:35:21,0.07,3.30,0.00,22.56,27.77,31.18,14.71,45.80,1026.62,2027.00,2451.62,2302.18,2604.99,600.07,602.90,30.12,0000 0000 0000 0000 000000
2016-11-16 02:40:22,0.07,3.30,0.00,22.58,27.77,31.13,14.70,45.58,1026.45,2027.01,2450.62,2301.64,2604.14,599.88,602.50,30.17,0000 0000 0000 0000 000000
2016-11-16 02:45:23,0.06,3.31,0.00,22.58,27.78,31.20,14.72,45.79,1026.42,2027.00,2449.64,2300.92,2603.29,599.86,602.41,30.22,0000 0000 0000 0000 000000
2016-11-16 02:50:25,0.07,3.31,0.00,22.53,27.79,31.22,14.68,45.62,1026.42,2027.00,2448.77,2300.08,2602.58,599.96,602.63,30.27,0000 0000 0000 0000 000000
2016-11-16 02:55:26,0.06,3.31,0.00,22.56,27.80,31.19,14.73,45.69,1026.39,2027.00,2447.86,2299.58,2601.83,600.35,603.05,30.32,0000 0000 0000 0000 000000
2016-11-16 03:00:27,0.04,3.32,0.00,22.59,27.80,31.18,14.69,45.74,1026.38,2027.01,2447.03,2298.98,2601.06,600.02,602.53,30.37,0000 0000 0000 0000 000000
2016-11-16 03:05:28,0.08,3.32,0.00,22.57,27.80,31.25,14.74,45.92,1026.38,2027.00,2446.12,2298.19,2600.36,600.22,602.97,30.42,0000 0000 0000 0000 000000
2016-11-16 03:10:29,0.06,3.32,0.00,22.57,27.80,31.21,14.66,46.05,1026.37,2027.00,2445.24,2297.72,2599.70,599.80,602.43,30.47,0000 0000 0000 0000 000000
2016-11-16 03:15:31,0.06,3.33,0.00,22.59,27.80,31.18,14.65,45.83,1026.36,2027.00,2444.53,2297.03,2598.98,599.51,602.15,30.52,0000 0000 0000 0000 000000
2016-11-16 03:20:32,0.07,3.33,0.00,22.60,27.80,31.22,14.77,45.84,1026.36,2027.00,2443.69,2296.42,2598.18,600.24,602.65,30.57,0000 0000 0000 0000 000000
2016-11-16 03:25:34,0.05,3.33,0.00,22.58,27.80,31.24,14.82,46.09,1026.15,2027.00,2442.77,2295.90,2597.57,600.20,602.59,30.62,0000 0000 0000 0000 000000
2016-11-16 03:30:35,0.06,3.34,0.00,22.57,27.80,31.23,14.78,46.02,1025.95,2027.00,2441.94,2295.08,2596.89,600.22,602.62,30.67,0000 0000 0000 0000 000000
2016-11-16 03:35:36,0.06,3.34,0.00,22.59,27.80,31.18,14.69,45.84,1025.90,2027.00,2441.08,2294.68,2596.07,600.02,602.34,30.72,0000 0000 0000 0000 000000
2016-11-16 03:40:38,0.06,3.34,0.00,22.62,27.81,31.16,14.71,45.82,1025.91,2027.00,2440.31,2294.00,2595.43,600.13,602.34,30.77,0000 0000 0000 0000 000000
2016-11-16 03:45:39,0.07,3.35,0.00,22.57,27.82,31.21,14.71,46.08,1025.90,2027.00,2439.47,2293.28,2594.77,600.07,602.50,30.82,0000 0000 0000 0000 000000
2016-11-16 03:50:40,0.06,3.35,0.00,22.55,27.82,31.24,14.70,45.89,1025.86,2027.00,2438.60,2292.70,2594.00,599.84,602.19,30.87,0000 0000 0000 0000 000000
2016-11-16 03:55:41,0.05,3.35,0.00,22.61,27.82,31.22,14.71,46.03,1025.78,2027.00,2437.84,2292.02,2593.23,600.14,602.40,30.92,0000 0000 0000 0000 000000
2016-11-16 04:00:43,0.07,3.35,0.00,22.61,27.82,31.29,14.66,46.05,1025.73,2027.00,2436.97,2291.48,2592.61,600.07,602.09,30.97,0000 0000 0000 0000 000000
2016-11-16 04:05:44,0.04,3.36,0.00,22.60,27.82,31.37,14.73,45.95,1025.75,2027.00,2436.08,2290.92,2591.93,600.26,602.48,31.02,0000 0000 0000 0000 000000
2016-11-16 04:10:45,0.08,3.36,0.00,22.57,27.82,31.30,14.71,45.99,1025.77,2027.00,2435.22,2290.13,2591.13,600.11,602.30,31.07,0000 0000 0000 0000 000000
2016-11-16 04:15:47,0.06,3.36,0.00,22.58,27.82,31.31,14.75,46.05,1025.63,2027.00,2434.40,2289.79,2590.56,600.07,602.16,31.12,0000 0000 0000 0000 000000
2016-11-16 04:20:48,0.05,3.37,0.00,22.58,27.82,31.34,14.70,46.04,1025.59,2027.00,2433.62,2289.03,2589.97,599.97,602.04,31.18,0000 0000 0000 0000 000000
2016-11-16 04:25:49,0.07,3.37,0.00,22.57,27.82,31.29,14.65,46.07,1025.67,2027.00,2432.86,2288.51,2589.16,599.62,601.77,31.23,0000 0000 0000 0000 000000
2016-11-16 04:30:50,0.05,3.37,0.00,22.57,27.82,31.29,14.73,46.00,1025.84,2027.00,2431.96,2287.95,2588.48,600.29,602.57,31.28,0000 0000 0000 0000 000000
2016-11-16 04:35:51,0.08,3.38,0.00,22.58,27.82,31.32,14.76,46.08,1025.85,2027.00,2431.04,2287.14,2587.65,600.01,602.34,31.33,0000 0000 0000 0000 000000
2016-11-16 04:40:53,0.06,3.38,0.00,22.57,27.82,31.29,14.75,46.13,1025.74,2026.99,2430.15,2286.56,2586.97,600.09,602.54,31.38,0000 0000 0000 0000 000000
2016-11-16 04:45:54,0.05,3.39,0.00,22.57,27.82,31.24,14.69,45.89,1025.80,2026.99,2429.32,2285.98,2586.15,599.95,602.24,31.43,0000 0000 0000 0000 000000
2016-11-16 04:50:55,0.07,3.39,0.00,22.54,27.82,31.30,14.73,46.15,1025.57,2026.99,2428.52,2285.24,2585.68,600.04,602.27,31.48,0000 0000 0000 0000 000000
2016-11-16 04:55:56,0.02,3.39,0.00,22.52,27.82,31.31,14.71,46.12,1025.60,2026.99,2427.85,2284.96,2585.02,599.94,602.18,31.53,0000 0000 0000 0000 000000
2016-11-16 05:00:58,0.07,3.39,0.00,22.56,27.82,31.31,14.71,45.92,1025.77,2026.99,2427.04,2284.20,2584.38,599.85,602.21,31.58,0000 0000 0000 0000 000000
2016-11-16 05:05:59,0.04,3.40,0.00,22.57,27.82,31.31,14.70,45.92,1025.54,2026.99,2426.20,2283.84,2583.85,600.08,602.27,31.63,0000 0000 0000 0000 000000
2016-11-16 05:11:00,0.06,3.40,0.00,22.54,27.82,31.35,14.63,46.09,1025.43,2026.99,2425.54,2283.08,2583.07,599.62,601.87,31.68,0000 0000 0000 0000 000000
2016-11-16 05:16:01,0.05,3.40,0.00,22.57,27.82,31.33,14.69,46.19,1025.42,2026.99,2424.78,2282.70,2582.52,600.04,602.12,31.73,0000 0000 0000 0000 000000
2016-11-16 05:21:03,0.04,3.41,0.00,22.56,27.82,31.30,14.74,46.08,1025.42,2026.99,2424.02,2282.03,2581.95,599.96,602.09,31.78,0000 0000 0000 0000 000000
2016-11-16 05:26:04,0.07,3.41,0.00,22.61,27.82,31.24,14.73,46.02,1025.42,2026.99,2423.19,2281.50,2581.12,600.02,602.02,31.83,0000 0000 0000 0000 000000
2016-11-16 05:31:05,0.04,3.41,0.00,22.59,27.82,31.27,14.73,46.08,1025.42,2026.99,2422.50,2280.99,2580.74,600.17,602.19,31.88,0000 0000 0000 0000 000000
2016-11-16 05:36:07,0.06,3.41,0.00,22.55,27.83,31.31,14.68,46.17,1025.41,2026.99,2421.76,2280.46,2580.02,599.80,601.92,31.93,0000 0000 0000 0000 000000
2016-11-16 05:41:08,0.04,3.42,0.00,22.54,27.83,31.29,14.75,46.00,1025.42,2026.99,2421.02,2280.00,2579.42,599.92,601.95,31.98,0000 0000 0000 0000 000000
2016-11-16 05:46:09,0.05,3.42,0.00,22.60,27.84,31.26,14.65,46.02,1025.41,2026.99,2420.33,2279.61,2579.00,600.19,602.19,32.03,0000 0000 0000 0000 000000
2016-11-16 05:51:11,0.05,3.42,0.00,22.59,27.85,31.36,14.73,46.02,1025.41,2026.99,2419.73,2279.02,2578.31,600.02,602.02,32.08,0000 0000 0000 0000 000000
2016-11-16 05:56:12,0.04,3.42,0.00,22.61,27.85,31.30,14.72,45.95,1025.42,2026.99,2419.02,2278.56,2577.97,600.05,601.97,32.13,0000 0000 0000 0000 000000
2016-11-16 06:01:13,0.05,3.43,0.00,22.64,27.85,31.22,14.68,45.96,1025.41,2026.99,2418.32,2278.01,2577.26,599.87,601.88,32.18,0000 0000 0000 0000 000000
2016-11-16 06:06:14,0.01,3.43,0.00,22.66,27.85,31.30,14.70,45.89,1025.42,2026.99,2417.89,2277.87,2577.00,599.84,601.73,32.23,0000 0000 0000 0000 000000
2016-11-16 06:11:16,0.06,3.43,0.00,22.62,27.85,31.30,14.69,45.89,1025.41,2026.99,2417.29,2277.21,2576.66,600.05,602.02,32.28,0000 0000 0000 0000 000000
2016-11-16 06:16:17,0.04,3.43,0.00,22.62,27.85,31.31,14.74,46.01,1025.42,2027.00,2416.53,2276.98,2576.02,600.06,602.07,32.33,0000 0000 0000 0000 000000
2016-11-16 06:21:18,0.03,3.43,0.00,22.65,27.86,31.26,14.70,46.08,1025.42,2027.01,2416.01,2276.64,2575.79,600.02,601.94,32.38,0000 0000 0000 0000 000000
2016-11-16 06:26:19,0.03,3.44,0.00,22.67,27.87,31.31,14.69,46.03,1025.42,2027.03,2415.92,2276.05,2575.14,599.96,601.78,32.43,0000 0000 0000 0000 000000
2016-11-16 06:31:21,-0.00,3.44,0.00,22.64,27.87,31.30,14.73,46.01,1025.42,2027.01,2415.91,2276.00,2575.02,600.09,602.01,32.48,0000 0000 0000 0000 000000
2016-11-16 06:36:22,0.04,3.44,0.00,22.64,27.87,31.26,14.71,45.94,1025.43,2027.00,2415.14,2275.90,2574.78,600.05,602.04,32.53,0000 0000 0000 0000 000000
2016-11-16 06:41:23,0.05,3.44,0.00,22.69,27.87,31.28,14.66,45.92,1025.44,2027.01,2414.73,2275.26,2574.12,600.25,602.07,32.58,0000 0000 0000 0000 000000
2016-11-16 06:46:24,0.01,3.44,0.00,22.69,27.89,31.26,14.70,46.06,1025.43,2027.00,2414.00,2274.99,2573.94,599.87,601.68,32.63,0000 0000 0000 0000 000000
2016-11-16 06:51:26,0.06,3.45,0.00,22.68,27.90,31.28,14.71,46.02,1025.42,2027.01,2413.21,2274.60,2573.24,599.97,601.76,32.69,0000 0000 0000 0000 000000
2016-11-16 06:56:27,0.01,3.45,0.00,22.67,27.90,31.26,14.69,45.99,1025.47,2027.00,2413.02,2274.10,2573.02,599.88,601.68,32.74,0000 0000 0000 0000 000000
2016-11-16 07:01:29,0.00,3.45,0.00,22.70,27.91,31.24,14.70,46.04,1025.43,2027.00,2413.00,2274.00,2572.97,600.01,601.83,32.79,0000 0000 0000 0000 000000
2016-11-16 07:06:30,0.04,3.45,0.00,22.69,27.92,31.27,14.63,45.98,1025.44,2027.00,2412.72,2273.90,2572.28,599.69,601.44,32.84,0000 0000 0000 0000 000000
2016-11-16 07:11:31,0.04,3.45,0.00,22.70,27.92,31.31,14.69,45.96,1025.56,2027.00,2412.03,2273.13,2571.98,599.97,601.89,32.89,0000 0000 0000 0000 000000
2016-11-16 07:16:33,0.04,3.45,0.00,22.67,27.93,31.27,14.66,45.95,1025.56,2027.00,2411.36,2272.97,2571.31,600.01,602.05,32.94,0000 0000 0000 0000 000000
2016-11-16 07:21:34,0.06,3.46,0.00,22.76,27.95,31.27,14.63,45.90,1025.61,2026.99,2410.62,2272.29,2570.98,599.95,601.75,32.99,0000 0000 0000 0000 000000
2016-11-16 07:26:35,0.02,3.46,0.00,22.73,27.95,31.32,14.72,45.88,1025.65,2026.99,2410.01,2272.00,2570.48,600.00,602.03,33.04,0000 0000 0000 0000 000000
2016-11-16 07:31:37,0.01,3.46,0.00,22.72,27.96,31.33,14.64,45.84,1025.69,2026.99,2409.97,2272.00,2570.05,599.79,601.76,33.09,0000 0000 0000 0000 000000
2016-11-16 07:36:38,0.03,3.46,0.00,22.76,27.97,31.29,14.73,45.80,1025.47,2026.99,2409.77,2271.73,2569.98,600.02,601.68,33.14,0000 0000 0000 0000 000000
2016-11-16 07:41:39,0.05,3.46,0.00,22.81,27.97,31.33,14.77,45.90,1025.44,2026.96,2409.09,2271.04,2569.45,600.25,601.79,33.19,0000 0000 0000 0000 000000
2016-11-16 07:46:41,0.03,3.46,0.00,22.79,27.99,31.35,14.68,45.86,1025.43,2026.97,2408.72,2270.82,2568.99,600.05,601.68,33.24,0000 0000 0000 0000 000000
2016-11-16 07:51:42,0.05,3.47,0.00,22.81,28.00,31.33,14.75,45.92,1025.42,2026.96,2408.02,2270.08,2568.43,600.27,601.82,33.29,0000 0000 0000 0000 000000
2016-11-16 07:56:43,0.02,3.47,0.00,22.81,28.00,31.30,14.77,45.88,1025.42,2026.91,2407.50,2269.96,2568.01,600.29,601.80,33.34,0000 0000 0000 0000 000000
2016-11-16 08:01:44,0.05,3.47,0.00,22.85,28.02,31.34,14.75,45.88,1025.44,2026.77,2406.95,2269.26,2567.34,600.13,601.64,33.39,0000 0000 0000 0000 000000
2016-11-16 08:06:45,0.03,3.47,0.00,22.85,28.02,31.36,14.60,45.88,1025.45,2026.77,2406.15,2268.99,2566.99,599.67,601.31,33.44,0000 0000 0000 0000 000000
2016-11-16 08:11:47,0.02,3.47,0.00,22.83,28.02,31.38,14.65,45.84,1025.46,2026.65,2405.86,2268.66,2566.53,599.92,601.50,33.49,0000 0000 0000 0000 000000
2016-11-16 08:16:48,0.04,3.48,0.00,22.83,28.04,31.35,14.63,45.78,1025.46,2026.46,2405.06,2268.04,2566.00,599.93,601.34,33.54,0000 0000 0000 0000 000000
2016-11-16 08:21:49,0.02,3.48,0.00,22.92,28.05,31.33,14.63,45.88,1025.46,2026.39,2404.71,2267.93,2565.58,599.99,601.39,33.60,0000 0000 0000 0000 000000
2016-11-16 08:26:50,0.03,3.48,0.00,22.93,28.05,31.32,14.61,45.85,1025.51,2026.16,2403.98,2267.17,2564.99,599.75,601.15,33.65,0000 0000 0000 0000 000000
2016-11-16 08:31:52,0.04,3.48,0.00,22.96,28.07,31.34,14.66,45.76,1025.48,2026.02,2403.22,2266.98,2564.35,600.02,601.34,33.70,0000 0000 0000 0000 000000
2016-11-16 08:36:53,0.05,3.48,0.00,23.02,28.08,31.32,14.65,45.77,1025.53,2026.02,2402.84,2266.25,2563.99,600.07,601.27,33.75,0000 0000 0000 0000 000000
2016-11-16 08:41:55,0.03,3.48,0.00,23.08,28.10,31.31,14.64,45.83,1025.62,2026.02,2402.18,2266.00,2563.61,600.15,601.34,33.80,0000 0000 0000 0000 000000
2016-11-16 08:46:56,0.04,3.49,0.00,23.09,28.11,31.36,14.62,45.72,1025.74,2026.00,2401.77,2265.65,2563.01,599.80,600.88,33.85,0000 0000 0000 0000 000000
2016-11-16 08:51:58,0.05,3.49,0.00,23.17,28.13,31.38,14.67,45.71,1025.60,2026.00,2401.02,2265.03,2562.37,600.13,601.00,33.90,0000 0000 0000 0000 000000
2016-11-16 08:56:59,0.03,3.49,0.00,23.22,28.15,31.37,14.60,45.74,1025.58,2026.00,2400.34,2264.82,2562.00,599.96,600.81,33.95,0000 0000 0000 0000 000000
2016-11-16 09:02:00,0.05,3.49,0.00,23.26,28.17,31.40,14.70,45.60,1025.63,2026.00,2399.94,2264.07,2561.38,600.10,600.89,34.00,0000 0000 0000 0000 000000
2016-11-16 09:07:01,0.02,3.50,0.00,23.29,28.19,31.42,14.63,45.69,1025.46,2026.00,2399.27,2264.00,2561.01,599.78,600.46,34.05,0000 0000 0000 0000 000000
2016-11-16 09:12:03,0.01,3.50,0.00,23.35,28.21,31.44,14.73,45.73,1025.45,2026.00,2398.99,2263.80,2560.95,600.44,600.78,34.10,0000 0000 0000 0000 000000
2016-11-16 09:17:04,0.07,3.50,0.00,23.42,28.23,31.45,14.67,45.80,1025.44,2025.99,2398.36,2263.14,2560.23,600.18,600.57,34.15,0000 0000 0000 0000 000000
2016-11-16 09:22:05,0.00,3.50,0.00,23.45,28.26,31.49,14.61,45.84,1025.44,2025.96,2398.01,2263.00,2559.99,599.96,600.24,34.20,0000 0000 0000 0000 000000
2016-11-16 09:27:07,-0.00,3.50,0.00,23.49,28.29,31.53,14.60,45.58,1025.43,2025.67,2397.85,2262.71,2559.63,600.09,600.27,34.25,0000 0000 0000 0000 000000
2016-11-16 09:32:08,0.01,3.50,0.00,23.55,28.31,31.56,14.64,45.80,1025.42,2025.35,2397.37,2262.10,2559.04,599.92,599.97,34.30,0000 0000 0000 0000 000000
2016-11-16 09:37:09,-0.01,3.50,0.00,23.56,28.34,31.58,14.66,45.75,1025.43,2025.10,2397.01,2262.00,2559.00,600.60,600.58,34.35,0000 0000 0000 0000 000000
2016-11-16 09:42:10,0.05,3.50,0.00,23.61,28.37,31.62,14.65,45.79,1025.43,2025.01,2396.68,2261.61,2558.60,600.33,600.15,34.40,0000 0000 0000 0000 000000
2016-11-16 09:47:12,0.03,3.50,0.00,23.69,28.40,31.66,14.61,45.82,1025.42,2025.00,2396.02,2261.02,2558.01,600.04,599.91,34.45,0000 0000 0000 0000 000000
2016-11-16 09:52:13,0.06,3.51,0.00,23.72,28.42,31.68,14.59,45.80,1025.41,2025.00,2395.54,2260.65,2557.30,599.83,599.49,34.51,0000 0000 0000 0000 000000
2016-11-16 09:57:14,0.03,3.51,0.00,23.76,28.46,31.73,14.64,45.87,1025.41,2024.93,2394.85,2260.01,2556.72,600.23,599.90,34.56,0000 0000 0000 0000 000000
2016-11-16 10:02:15,-0.00,3.51,0.00,23.96,28.49,31.80,14.65,45.73,1025.42,2024.46,2394.04,2259.34,2556.01,600.12,599.30,34.61,0000 0000 0000 0000 000000
2016-11-16 10:07:16,0.04,3.51,0.00,24.03,28.52,31.84,14.59,45.72,1025.41,2024.16,2393.31,2258.88,2555.26,600.30,599.30,34.66,0000 0000 0000 0000 000000
2016-11-16 10:12:17,0.06,3.51,0.00,24.10,28.55,31.89,14.50,45.74,1025.42,2024.04,2392.44,2258.07,2554.56,599.85,598.74,34.71,0000 0000 0000 0000 000000
2016-11-16 10:17:18,0.06,3.52,0.00,24.12,28.59,31.93,14.61,45.74,1025.42,2024.00,2391.66,2257.50,2553.87,600.05,599.12,34.76,0000 0000 0000 0000 000000
2016-11-16 10:22:19,0.04,3.52,0.00,24.18,28.62,31.97,14.57,45.85,1025.41,2023.99,2390.86,2256.93,2553.07,599.82,598.58,34.81,0000 0000 0000 0000 000000
2016-11-16 10:27:20,0.07,3.52,0.00,24.23,28.66,31.99,14.56,45.84,1025.41,2023.89,2390.01,2256.11,2552.22,599.80,598.46,34.86,0000 0000 0000 0000 000000
2016-11-16 10:32:22,0.02,3.52,0.00,24.23,28.69,32.01,14.58,45.92,1025.41,2023.34,2389.11,2255.49,2551.40,599.86,598.69,34.91,0000 0000 0000 0000 000000
2016-11-16 10:37:23,0.03,3.53,0.00,24.25,28.73,32.06,14.60,45.98,1025.41,2023.09,2388.18,2254.88,2550.59,600.00,598.70,34.96,0000 0000 0000 0000 000000
2016-11-16 10:42:24,0.07,3.53,0.00,24.28,28.76,32.10,14.59,45.84,1025.41,2023.01,2387.42,2254.08,2549.78,600.18,598.84,35.01,0000 0000 0000 0000 000000
2016-11-16 10:47:25,0.08,3.53,0.00,24.25,28.79,32.09,14.57,45.83,1025.41,2023.00,2386.35,2253.28,2549.01,599.71,598.45,35.06,0000 0000 0000 0000 000000
2016-11-16 10:52:27,0.06,3.54,0.00,24.29,28.83,32.15,14.62,45.89,1025.41,2022.99,2385.62,2252.82,2548.19,600.51,599.15,35.11,0000 0000 0000 0000 000000
2016-11-16 10:57:28,0.06,3.54,0.00,24.32,28.86,32.17,14.52,45.89,1025.41,2022.89,2384.72,2252.06,2547.34,600.06,598.48,35.16,0000 0000 0000 0000 000000
2016-11-16 11:02:29,0.01,3.54,0.00,24.34,28.88,32.19,14.57,45.88,1025.41,2022.47,2383.85,2251.32,2546.61,599.66,598.10,35.21,0000 0000 0000 0000 000000
2016-11-16 11:07:30,0.02,3.54,0.00,24.32,28.91,32.20,14.52,45.83,1025.41,2022.17,2382.99,2250.78,2545.87,599.66,598.10,35.26,0000 0000 0000 0000 000000
2016-11-16 11:12:32,0.06,3.55,0.00,24.34,28.94,32.24,14.63,45.80,1025.40,2022.02,2382.09,2250.03,2545.06,600.44,598.78,35.31,0000 0000 0000 0000 000000
2016-11-16 11:17:33,0.09,3.55,0.00,24.36,28.96,32.24,14.57,45.75,1025.38,2022.00,2381.10,2249.26,2544.20,600.12,598.57,35.36,0000 0000 0000 0000 000000
2016-11-16 11:22:35,0.07,3.55,0.00,24.35,28.99,32.27,14.60,45.87,1025.40,2022.00,2380.22,2248.73,2543.51,600.12,598.54,35.41,0000 0000 0000 0000 000000
2016-11-16 11:27:36,0.04,3.56,0.00,24.36,29.01,32.29,14.62,45.80,1025.40,2021.99,2379.47,2248.03,2542.89,600.17,598.68,35.46,0000 0000 0000 0000 000000
2016-11-16 11:32:37,0.06,3.56,0.00,24.36,29.03,32.28,14.63,45.86,1025.40,2021.96,2378.74,2247.50,2542.07,600.46,598.79,35.52,0000 0000 0000 0000 000000
2016-11-16 11:37:38,0.04,3.56,0.00,24.36,29.05,32.31,14.51,45.84,1025.40,2021.86,2377.83,2246.93,2541.39,599.81,598.21,35.57,0000 0000 0000 0000 000000
2016-11-16 11:42:39,0.04,3.56,0.00,24.37,29.07,32.31,14.65,45.66,1025.40,2021.63,2377.04,2246.15,2540.67,600.37,598.80,35.62,0000 0000 0000 0000 000000
2016-11-16 11:47:41,0.01,3.57,0.00,24.37,29.08,32.32,14.59,45.97,1025.39,2021.24,2376.31,2245.70,2539.99,600.00,598.53,35.67,0000 0000 0000 0000 000000
2016-11-16 11:52:42,0.06,3.57,0.00,24.37,29.10,32.33,14.56,45.85,1025.37,2021.07,2375.40,2245.01,2539.16,600.03,598.51,35.72,0000 0000 0000 0000 000000
2016-11-16 11:57:43,0.07,3.57,0.00,24.37,29.12,32.34,14.61,45.88,1025.34,2021.02,2374.46,2244.33,2538.42,599.98,598.30,35.77,0000 0000 0000 0000 000000
2016-11-16 12:02:44,0.05,3.57,0.00,24.38,29.13,32.34,14.63,45.99,1025.12,2021.01,2373.59,2243.77,2537.73,599.86,598.22,35.82,0000 0000 0000 0000 000000
2016-11-16 12:07:46,0.05,3.58,0.00,24.39,29.15,32.36,14.56,45.82,1025.09,2021.00,2372.81,2243.05,2537.02,600.16,598.37,35.87,0000 0000 0000 0000 000000
2016-11-16 12:12:47,0.08,3.58,0.00,24.38,29.15,32.36,14.60,45.72,1025.21,2021.00,2371.86,2242.50,2536.28,600.07,598.34,35.92,0000 0000 0000 0000 000000
2016-11-16 12:17:48,0.04,3.58,0.00,24.37,29.17,32.34,14.53,45.84,1025.06,2021.00,2371.04,2241.99,2535.72,600.08,598.39,35.97,0000 0000 0000 0000 000000
2016-11-16 12:22:49,0.07,3.59,0.00,24.35,29.17,32.34,14.56,45.77,1024.99,2021.00,2370.33,2241.30,2535.02,599.90,598.11,36.02,0000 0000 0000 0000 000000
2016-11-16 12:27:50,0.04,3.59,0.00,24.35,29.19,32.35,14.60,45.82,1024.95,2021.00,2369.60,2240.96,2534.38,600.27,598.55,36.07,0000 0000 0000 0000 000000
2016-11-16 12:32:51,0.05,3.59,0.00,24.37,29.20,32.37,14.53,45.88,1024.95,2020.99,2368.93,2240.23,2533.93,599.71,597.96,36.12,0000 0000 0000 0000 000000
2016-11-16 12:37:52,0.04,3.60,0.00,24.38,29.20,32.38,14.59,45.78,1024.97,2020.99,2368.09,2239.98,2533.14,600.01,598.16,36.17,0000 0000 0000 0000 000000
2016-11-16 12:42:54,0.08,3.60,0.00,24.38,29.21,32.37,14.58,45.84,1025.03,2020.99,2367.40,2239.32,2532.61,599.79,597.96,36.22,0000 0000 0000 0000 000000
2016-11-16 12:47:55,0.03,3.60,0.00,24.39,29.22,32.40,14.53,45.95,1024.96,2020.99,2366.42,2238.99,2532.00,600.04,598.24,36.27,0000 0000 0000 0000 000000
2016-11-16 12:52:57,0.05,3.60,0.00,24.39,29.22,32.39,14.53,45.94,1024.93,2020.99,2365.88,2238.64,2531.46,599.96,598.01,36.32,0000 0000 0000 0000 000000
2016-11-16 12:57:58,0.04,3.61,0.00,24.41,29.22,32.37,14.54,45.94,1024.93,2020.99,2365.06,2238.03,2531.00,599.69,597.70,36.37,0000 0000 0000 0000 000000